Regional Weather Roundup
Issued by NWS

Home | Current Version | Previous Version | Text Only | Print | Product List | Glossary On
Versions: 1 2 3 4 5 6 7 8 9 10 11 12 13 14 15 16 17 18 19 20 21 22 23 24 25 26 27 28 29 30 31 32 33 34 35 36 37 38 39 40 41 42 43 44 45 46
000
ASUS45 KPSR 290410
RWRAZ

ARIZONA HOURLY REGIONAL WEATHER ROUNDUP
NATIONAL WEATHER SERVICE PHOENIX AZ
900 PM MST WED JUN 28 2017

NOTE: FAIR INDICATES FEW OR NO CLOUDS BELOW 12,000 FEET WITH NO
SIGNIFICANT WEATHER AND/OR OBSTRUCTIONS TO VISIBILITY.

AZZ001>003-036-290500-
NORTHWEST ARIZONA

CITY           SKY/WX    TMP DP  RH WIND       PRES   REMARKS
BULLHEAD CITY  CLEAR    102  25   6 S17       29.61R
KINGMAN        CLEAR     77  17  10 S12       29.87R
$$

AZZ004>008-015-016-018-290500-
NORTH CENTRAL ARIZONA

CITY           SKY/WX    TMP DP  RH WIND       PRES   REMARKS
GRAND CANYON   CLEAR     61  14  16 W6        30.12R
PRESCOTT       CLEAR     78  29  16 SW8       30.02R
FLAGSTAFF      CLEAR     69  18  14 SW12      30.17R
PAYSON         CLEAR     79  28  15 VRB5      30.08R
PAGE           CLEAR     90  11   5 W14G25    29.85R
$$

AZZ009>014-017-290500-
NORTHEAST ARIZONA

CITY           SKY/WX    TMP DP  RH WIND       PRES   REMARKS
WINSLOW        CLEAR     80  28  15 SW16      29.99R
SAINT JOHNS    CLEAR     75  23  14 SW10      30.06R
WINDOW ROCK    CLEAR     67  14  13 S7        30.11R
SHOW LOW       CLEAR     68  19  15 SW9       30.16R
$$

AZZ540-542>544-546-548-290500-
GREATER PHOENIX AREA

CITY           SKY/WX    TMP DP  RH WIND       PRES   REMARKS
PHOENIX        CLEAR    102  37  10 W12       29.69R
BUCKEYE        CLEAR     91  34  13 SW8       29.71R
LUKE AFB       CLEAR     95  40  14 SW7       29.69R
DEER VALLEY    CLEAR     98  36  11 SW10      29.72R
SCOTTSDALE     CLEAR     99  38  12 W3        29.74R
MESA-GATEWAY   CLEAR     99  43  14 W7        29.73R
CHANDLER       CLEAR     99  43  14 SW9       29.71R
$$

AZZ539-553-290500-
SOUTHWEST MARICOPA COUNTY AND PINAL COUNTY

CITY           SKY/WX    TMP DP  RH WIND       PRES   REMARKS
CASA GRANDE    CLEAR     95  44  17 W8        29.75R
GILA BEND      CLEAR     98  38  13 S12       29.69R
$$

AZZ503-504-507>509-290500-
SOUTHEAST ARIZONA

CITY           SKY/WX    TMP DP  RH WIND       PRES   REMARKS
TUCSON         CLEAR     96  40  14 W9        29.87R
DAVIS-MONTHAN  CLEAR     94  41  15 W14       29.86R
NOGALES        CLEAR     87  49  26 SW10      29.99R
SIERRA VISTA   CLEAR     85  38  19 W10       30.06R
DOUGLAS        CLEAR     86  47  25 W12       29.99R
SAFFORD        CLEAR     92  39  15 NW13      29.85R
$$

AZZ532-290500-
SOUTHWEST ARIZONA

CITY           SKY/WX    TMP DP  RH WIND       PRES   REMARKS
YUMA           CLEAR     95  50  21 SW8       29.68R
$$

CAZ041-043-047-048-061-525>527-560>570-290500-
SOUTHERN CALIFORNIA

CITY           SKY/WX    TMP DP  RH WIND       PRES   REMARKS
DOWNTOWN L.A.  CLEAR     67  59  75 CALM      29.89R
L.A. AIRPORT   PTCLDY    64  60  87 W7        29.89R
SAN DIEGO      MOCLDY    64  57  78 S5        29.93R
BURBANK        CLEAR     69  57  65 S8        29.89R
ONTARIO        CLEAR     69  56  62 W12       29.88R
RIVERSIDE      CLEAR     68  58  70 W8        29.88R
PALM SPRINGS   CLEAR     94  30  10 NW21G30   29.67R
EL CENTRO NAS  CLEAR     91  21   8 W23       29.67R
IMPERIAL       CLEAR     89  31  12 W17G25    29.64R
BLYTHE         CLEAR    101  28   7 SW17      29.64R
NEEDLES        CLEAR    102  15   4 S7        29.64R
$$

NVZ020-UTZ003-290500-
SOUTHERN NEVADA-UTAH

CITY           SKY/WX    TMP DP  RH WIND       PRES   REMARKS
LAS VEGAS      CLEAR     98  15   5 SW12      29.69R
SALT LAKE CITY PTCLDY    76  46  34 N7        29.87R
$$

NMZ009-TXZ055-290500-
NEW MEXICO-WEST TEXAS

CITY           SKY/WX    TMP DP  RH WIND       PRES   REMARKS
ALBUQUERQUE    CLEAR     83  18   9 SW6       29.96R
EL PASO        CLEAR     93  19   7 NW7       29.90R
$$


........................KEY........................
SKY/WX - SKY CONDITION/WEATHER
TMP    - TEMPERATURE IN FAHRENHEIT
DP     - DEW POINT IN FAHRENHEIT
RH     - RELATIVE HUMIDITY IN PERCENT
WIND   - DIRECTION AND SPEED IN MILES PER HOUR (MPH)
VRB    - VARIABLE WIND DIRECTION
PRES   - MEAN SEA LEVEL PRESSURE IN INCHES OF MERCURY
         F - FALLING PRESSURE   R - RISING PRESSURE
         S - STEADY PRESSURE
VSB    - VISIBILITY IN MILES
HX     - HEAT INDEX IN FAHRENHEIT
WCI    - WIND CHILL INDEX IN FAHRENHEIT
TC     - TEMPERATURE IN CELSIUS WHICH IS ALSO KNOWN AS
         TEMPERATURE IN CENTIGRADE
AFB    - AIR FORCE BASE
         LUKE AFB IS LUKE AIR FORCE BASE
         DAVIS-MONTHAN IS DAVIS-MONTHAN AIR FORCE BASE
NAS    - NAVAL AIR STATION
         EL CENTRO NAS IS EL CENTRO NAVAL AIR STATION
N/A    - NOT AVAILABLE





USA.gov is the U.S. government's official web portal to all federal, state and local government web resources and services.